EHI
0 0 0 0 0 0 0 0 0 0 0 0 0 0 0 0 0 0 0 0 0 0 0 0 0 0 0 0 0 0 0 0 0 0 0 0 0 0 0 0 0 0 0 0
0 0 0 0 0 0 0 0 0 0 0 0 0 0 0 0 0 0 0 0 0 0 0 0 0 0 0 0 0 0 0 0 0 0 0 0 0 0 0 0 0 0 0 0
0 0 0 0 0 0 0 0 0 0 0 0 0 0 0 0 0 0 0 0 0 0 0 0 0 0 0 0 0 0 0 0 0 0 0 0 0 0 0 0 0 0 0 0
0 0 0 0 0 0 0 0 0 0 0 0 0 0 0 0 0 0 0 0 0 0 0 0 0 0 0 0 0 0 0 0 0 0 0 0 0 0 0 0 0 0 0 0
0 0 0 0 0 0 0 0 0 0 0 0 0 0 0 0 0 0 0 0 0 0 0 0 0 0 0 0 0 0 0 0 0 0 0 0 0 0 0 0 0 0 0 0
0 0 0 0 0 0 0 0 0 0 0 0 0 0 0 0 0 0 0 0 0 0 0 0 0 0 0 0 0 0 0 0 0 0 0 0 0 0 0 0 0 0 0 0
0 0 0 0 0 0 0 0 0 0 0 0 0 0 0 0 0 0 0 0 0 0 0 0 0 0 0 0 0 0 0 0 0 0 0 0 0 0 0 0 0 0 0 0
0 0 0 0 0 0 0 0 0 0 0 0 0 0 0 0 0 0 0 0 0 0 0 0 0 0 0 0 0 0 0 0 0 0 0 0 0 0 0 0 0 0 0 0
0 0 0 0 0 0 0 0 0 0 0 0 0 0 0 0 0 0 0 0 0 0 0 0 0 0 0 0 0 0 0 0 0 0 0 0 0 0 0 0 0 0 0 0
0 0 0 0 0 0 0 0 0 0 0 0 0 0 0 0 0 0 0 0 0 0 0 0 0 0 0 0 0 0 0 0 0 0 0 0 0 0 0 0 0 0 0 0
0 0 0 0 0 0 0 0 0 0 0 0 0 0 0 0 0 0 0 0 0 0 0 0 0 0 0 0 0 0 0 0 0 0 0 0 0 0 0 0 0 0 0 0
0 0 0 0 0 0 0 0 0 0 0 0 0 0 0 0 0 0 0 0 0 0 0 0 0 0 0 0 0 0 0 0 0 0 0 0 0 0 0 0 0 0 0 0
0 0 0 0 0 0 0 0 0 0 0 0 0 0 0 0 0 0 0 0 0 0 0 0 0 0 0 0 0 0 0 0 0 0 0 0 0 0 0 0 0 0 0 0
0 0 0 0 0 0 0 0 0 0 0 0 0 0 0 0 0 0 0 0 0 0 0 0 0 0 0 0 0 0 0 0 0 0 0 0 0 0 0 0 0 0 0 0
0 0 0 0 0 0 0 0 0 0 0 0 0 0 0 0 0 0 0 0 0 0 0 0 0 0 0 0 0 0 0 0 0 0 0 0 0 0 0 0 0 0 0 0
0 0 0 0 0 0 0 0 0 0 0 0 0 0 0 0 0 0 0 0 0 0 0 0 0 0 0 0 0 0 0 0 0 0 0 0 0 0 0 0 0 0 0 0
0 0 0 0 0 0 0 0 0 0 0 0 0 0 0 0 0 0 0 0 0 0 0 0 0 0 0 0 0 0 0 0 0 0 0 0 0 0 0 0 0 0 0 0
0 0 0 0 0 0 0 0 0 0 0 0 0 0 0 0 0 0 0 0 0 0 0 0 0 0 0 0 0 0 0 0 0 0 0 0 0 0 0 0 0 0 0 0
0 0 0 0 0 0 0 0 0 0 0 0 0 0 0 0 0 0 0 0 0 0 0 0 0 0 0 0 0 0 0 0 0 0 0 0 0 0 0 0 0 0 0 0
0 0 0 0 0 0 0 0 0 0 0 0 0 0 0 0 0 0 0 0 0 0 0 0 0 0 0 0 0 0 0 0 0 0 0 0 0 0 0 0 0 0 0 0
0 0 0 0 0 0 0 0 0 0 0 0 0 0 0 0 0 0 0 0 0 0 0 0 0 0 0 0 0 0 0 0 0 0 0 0 0 0 0 0 0 0 0 0
0 0 0 0 0 0 0 0 0 0 0 0 0 0 0 0 0 0 0 0 0 0 0 0 0 0 0 0 0 0 0 0 0 0 0 0 0 0 0 0 0 0 0 0
0 0 0 0 0 0 0 0 0 0 0 0 0 0 0 0 0 0 0 0 0 0 0 0 0 0 0 0 0 0 0 0 0 0 0 0 0 0 0 0 0 0 0 0
0 0 0 0 0 0 0 0 0 0 0 0 0 0 0 0 0 0 0 0 0 0 0 0 0 0 0 0 0 0 0 0 0 0 0 0 0 0 0 0 0 0 0 0
0 0 0 0 0 0 0 0 0 0 0 0 0 0 0 0 0 0 0 0 0 0 0 0 0 0 0 0 0 0 0 0 0 0 0 0 0 0 0 0 0 0 0 0
0 0 0 0 0 0 0 0 0 0 0 0 0 0 0 0 0 0 0 0 0 0 0 0 0 0 0 0 0 0 0 0 0 0 0 0 0 0 0 0 0 0 0 0
0 0 0 0 0 0 0 0 0 0 0 0 0 0 0 0 0 0 0 0 0 0 0 0 0 0 0 0 0 0 0 0 0 0 0 0 0 0 0 0 0 0 0 0
Wind_Speed
5 5 4 5 6 6 6 7 7 7 9 12 14 13 12 10 8 7 6 5 5 4 2 2 1 1 1 0 1 1 2 2 2 2 3 3 4 4 4 5 5 5 4 5
2 2 2 3 6 6 6 6 5 5 7 7 8 7 8 9 10 9 7 6 5 4 3 2 2 1 1 1 1 2 2 1 2 3 3 4 4 4 5 5 5 5 5 5
2 3 2 4 7 7 6 6 9 9 9 8 9 12 14 12 11 10 8 7 6 5 4 3 3 2 2 1 1 2 1 1 2 3 3 4 5 5 5 5 5 5 5 5
1 2 4 9 5 5 6 5 6 6 8 14 14 13 10 9 11 10 9 8 6 5 4 3 2 2 2 1 2 1 1 2 2 2 3 4 4 5 5 4 4 4 5 5
3 2 6 7 3 4 5 3 4 7 8 9 8 7 1 5 8 9 9 7 6 5 4 3 3 2 2 1 1 1 1 2 3 2 3 3 4 4 4 4 5 4 4 5
4 3 6 8 4 2 6 3 3 7 11 11 11 6 7 7 7 8 7 6 6 4 4 3 2 2 3 1 0 1 3 3 3 2 2 3 4 4 3 3 4 5 5 5
4 4 8 7 2 4 4 8 4 8 12 13 10 8 7 9 8 8 7 6 6 5 4 3 2 3 2 1 3 4 3 2 3 3 3 3 2 3 3 4 5 5 5 5
5 4 9 4 4 6 7 3 5 7 9 9 6 6 8 9 9 8 7 6 6 5 3 3 3 3 2 3 4 3 2 2 3 3 3 3 2 3 3 3 4 5 4 5
9 8 5 3 5 4 5 5 4 6 6 8 8 7 8 8 8 7 7 6 5 5 4 2 2 3 3 4 3 2 1 2 3 3 3 3 3 3 3 3 3 4 4 5
1 3 2 1 2 2 4 5 5 7 8 8 8 8 8 7 7 6 6 5 4 5 4 3 3 3 4 4 3 2 2 3 3 3 4 4 3 3 3 3 4 4 5 5
1 2 1 2 2 3 4 5 6 6 6 8 9 8 7 7 7 6 5 4 4 5 4 4 3 3 4 3 3 2 3 3 3 3 3 4 4 3 4 4 5 6 5 5
7 8 6 5 3 4 6 6 7 6 5 5 7 8 7 7 6 6 5 4 4 4 4 4 3 3 4 3 3 3 3 3 3 3 3 3 4 5 6 7 11 12 11 10
6 5 5 4 3 4 5 6 6 7 7 6 5 6 7 6 5 5 5 5 5 5 5 4 3 4 4 3 3 3 3 3 3 3 3 3 3 4 6 7 9 11 12 13
3 4 2 3 3 4 4 5 5 5 5 5 5 5 6 5 5 6 6 7 6 5 5 4 4 5 5 4 3 4 4 4 4 3 3 3 4 4 5 6 7 6 8 12
2 3 5 4 3 3 4 5 5 4 3 3 4 5 6 6 6 6 6 5 5 4 5 5 5 6 5 4 4 5 4 3 4 3 3 4 4 4 5 6 6 6 6 8
2 2 4 5 5 5 5 6 5 5 4 4 4 4 5 6 5 4 4 5 5 6 6 6 6 6 5 4 4 4 4 7 6 3 3 4 4 4 5 5 6 6 6 7
4 3 3 4 5 5 5 5 6 6 5 5 6 5 4 4 3 3 4 4 5 6 6 6 6 5 4 4 4 4 4 5 8 5 4 4 4 5 5 5 6 6 7 8
6 6 6 7 6 5 4 4 5 5 5 6 5 5 5 5 5 5 5 3 3 3 5 5 5 4 4 4 4 4 3 4 4 4 5 5 5 5 5 6 7 8 7 8
2 3 3 4 4 4 4 4 4 5 4 5 5 6 6 6 6 5 4 3 4 5 6 5 7 5 4 6 5 3 3 4 4 5 5 7 7 5 6 6 7 7 8 7
2 2 2 2 2 3 3 2 3 3 3 4 5 4 4 5 4 4 4 5 6 6 6 5 5 5 6 6 7 3 4 5 5 6 6 6 6 6 6 7 7 7 7 7
2 2 2 1 1 1 2 3 3 3 3 3 4 5 6 5 5 4 4 5 6 6 5 7 4 4 5 6 7 4 5 5 6 6 6 6 6 7 7 7 7 7 7 7
0 1 0 0 1 1 2 2 3 3 2 2 3 3 4 4 4 4 5 6 6 7 4 4 4 7 8 8 4 4 5 6 6 5 6 6 6 7 7 8 7 7 7 7
1 1 1 1 2 2 2 2 2 3 3 4 4 4 4 4 4 4 5 5 4 7 5 4 7 10 11 6 4 5 6 6 6 6 6 6 6 7 7 8 7 7 7 7
1 1 2 2 1 1 2 4 3 3 4 4 4 5 4 3 3 4 5 6 7 7 5 6 10 12 10 4 4 5 6 6 7 7 7 6 6 7 7 7 7 7 8 9
2 2 2 2 2 3 4 4 3 4 4 3 4 5 4 4 4 4 4 5 7 6 4 7 12 12 7 5 5 6 6 7 7 7 6 6 7 7 7 7 7 8 8 8
3 3 3 4 4 3 3 2 2 3 3 3 4 4 3 3 4 4 4 5 6 7 5 4 6 7 5 5 6 6 6 7 8 7 7 7 7 8 7 7 9 8 8 8
4 3 3 3 3 3 3 3 3 3 3 4 4 4 4 4 3 4 4 4 4 5 5 5 5 5 5 6 6 7 6 6 7 7 7 7 7 7 7 9 8 7 7 8
Wind_Direction
227 229 197 202 208 198 183 182 183 205 189 198 189 179 174 168 161 156 158 160 161 158 156 149 135 95 74 51 41 70 66 40 3 348 351 346 341 335 334 337 338 327 329 331
299 276 235 232 220 202 202 192 183 169 210 203 173 155 159 166 165 166 169 168 165 162 159 163 166 162 101 44 30 83 73 19 349 354 351 343 332 333 335 333 330 330 328 325
270 300 15 268 229 203 199 193 168 190 210 158 158 174 178 176 173 174 172 169 167 168 172 179 182 167 158 165 79 73 55 4 350 348 343 332 334 341 332 326 328 325 320 323
165 37 239 246 254 193 183 209 196 185 175 170 176 181 179 172 171 174 172 169 170 169 170 178 173 162 146 103 78 63 20 339 330 335 330 331 338 333 323 320 322 313 312 315
136 201 272 288 263 171 162 235 207 175 165 160 129 99 157 191 171 172 170 165 166 168 165 162 166 162 127 95 74 50 315 304 298 304 318 329 329 320 315 321 320 311 310 314
140 178 234 248 261 156 103 270 245 164 155 146 130 154 218 191 163 157 154 154 155 155 146 149 177 153 128 151 182 262 267 275 284 289 301 305 302 302 308 314 312 312 316 313
170 212 258 254 245 101 146 234 215 166 158 159 171 188 174 155 156 156 154 156 153 148 150 171 174 141 147 196 239 250 261 278 299 296 290 285 295 300 309 315 321 316 312 310
159 192 251 244 140 169 205 203 152 156 162 163 153 129 137 150 154 155 155 157 154 151 166 186 170 150 177 232 247 253 264 288 297 296 295 312 306 304 310 314 321 313 308 310
183 206 238 208 183 187 156 143 150 155 158 146 138 146 150 155 157 160 160 161 160 159 171 199 193 171 198 239 245 245 262 282 290 296 298 296 291 296 306 311 309 309 301 301
194 262 254 190 142 138 147 147 149 146 144 144 150 153 153 155 158 159 163 165 161 158 171 211 226 216 220 233 228 217 244 271 283 288 296 299 293 284 287 296 297 302 300 294
233 264 6 313 205 160 131 121 119 124 137 147 145 152 158 162 167 170 170 172 167 171 188 215 225 236 246 238 211 218 243 265 276 273 277 287 284 271 271 265 265 281 282 275
216 216 187 216 211 158 140 146 146 138 135 145 152 158 160 168 173 172 173 171 173 184 199 217 221 237 253 243 212 210 242 262 264 266 272 277 286 299 287 279 290 289 289 286
208 203 190 192 177 155 151 157 155 150 152 155 158 159 161 166 174 173 174 178 188 198 207 214 218 237 249 239 212 209 229 248 258 262 268 273 277 288 301 306 298 292 294 294
180 136 143 179 184 165 153 153 141 133 143 154 157 155 156 159 166 177 189 198 199 200 209 214 221 239 244 231 221 226 234 250 255 250 256 260 268 277 283 291 302 299 294 292
202 169 178 171 144 134 132 125 122 130 137 140 148 156 162 169 183 196 203 200 195 202 218 223 230 244 243 231 226 233 236 244 247 248 251 257 267 274 280 282 285 290 294 298
165 107 125 138 148 146 137 139 150 170 169 164 162 172 181 183 189 196 201 196 193 213 225 228 236 244 241 232 232 239 242 261 268 257 257 264 269 274 279 281 284 287 288 290
154 168 166 168 170 171 171 174 176 180 179 179 185 181 170 165 179 204 218 219 215 220 225 227 238 245 235 225 225 236 243 260 273 275 258 261 265 268 272 275 277 280 279 280
177 186 182 174 173 177 186 184 182 180 184 193 185 175 177 183 198 216 226 228 234 248 247 239 237 236 233 234 230 232 239 245 246 253 259 262 265 264 267 271 275 279 282 285
158 167 171 172 170 167 176 187 192 193 191 181 179 190 200 206 211 216 214 208 223 246 257 255 257 248 243 248 249 231 241 253 257 258 261 269 273 267 267 269 273 276 278 279
93 126 141 150 149 154 173 186 182 189 199 188 188 197 212 223 220 216 213 220 226 230 238 248 250 248 246 250 256 239 243 252 257 263 264 263 265 269 270 271 272 274 275 273
59 71 102 135 175 184 183 177 174 197 214 200 199 210 220 229 225 216 215 241 253 245 242 253 248 247 249 256 260 246 247 253 259 261 261 262 266 269 271 272 274 276 276 277
88 71 101 158 182 247 239 200 192 202 210 222 229 227 227 238 239 235 230 234 246 249 245 241 242 256 266 269 251 246 250 254 259 260 260 261 265 270 273 274 274 276 276 276
221 219 222 229 224 244 272 249 220 211 213 220 225 228 232 238 230 229 255 254 246 257 255 245 259 271 277 270 252 251 255 259 262 263 262 263 265 267 270 271 271 273 274 275
271 253 247 245 231 230 254 259 251 239 230 228 228 229 230 244 260 248 244 263 265 266 256 259 270 279 285 271 261 259 260 261 262 264 264 263 265 267 269 271 271 272 272 274
265 259 261 265 255 248 248 252 252 249 245 246 249 244 234 221 231 249 250 251 260 268 261 270 281 287 282 267 265 264 263 262 267 268 261 264 266 268 270 271 272 273 274 274
259 253 251 246 244 249 251 248 247 245 238 248 258 256 251 245 242 248 250 252 256 268 264 261 267 275 266 263 264 265 266 275 280 275 266 266 267 268 270 272 273 273 273 273
264 262 264 270 268 253 244 236 240 250 245 241 254 256 254 254 256 259 261 260 261 262 263 265 265 264 264 265 266 267 267 267 268 268 268 268 269 268 270 271 273 274 274 274